| time (UTC) | temp C | wind direction | speed KPH | gust KPH | rain 1hr cm | rain 24hr cm | rain mn cm | humidity % | barometer mb |
| 20260506115006 | 11 | 138 | 1.6 | 6.4 | 0.00 | 1.96 | 1.22 | 83 | 1011.2 |
| 20260506114521 | 10 | 96 | 1.6 | 6.4 | 0.00 | 1.98 | 1.22 | 86 | 1011.3 |
| 20260506114010 | 10 | 120 | 1.6 | 9.7 | 0.00 | 1.98 | 1.22 | 84 | 1011.3 |
| 20260506113507 | 10 | 139 | 1.6 | 9.7 | 0.00 | 1.98 | 1.22 | 86 | 1011.4 |
| 20260506113030 | 10 | 278 | 1.6 | 8.0 | 0.00 | 1.98 | 1.22 | 85 | 1011.4 |
| 20260506112512 | 10 | 281 | 1.6 | 11.3 | 0.00 | 1.98 | 1.22 | 81 | 1011.5 |
| 20260506112013 | 10 | 259 | 4.8 | 11.3 | 0.00 | 1.96 | 1.19 | 80 | 1011.4 |
| 20260506111525 | 11 | 307 | 1.6 | 6.4 | 0.00 | 1.96 | 1.19 | 81 | 1011.5 |
| 20260506111006 | 11 | 117 | 1.6 | 9.7 | 0.00 | 1.96 | 1.19 | 81 | 1011.5 |
| 20260506110504 | 11 | 164 | 1.6 | 9.7 | 0.00 | 1.96 | 1.19 | 82 | 1011.5 |
| 20260506110014 | 11 | 123 | 3.2 | 9.7 | 0.00 | 1.96 | 1.19 | 80 | 1011.5 |
| 20260506105508 | 11 | 260 | 1.6 | 9.7 | 0.00 | 1.96 | 1.19 | 82 | 1011.5 |
| 20260506105007 | 11 | 122 | 3.2 | 9.7 | 0.00 | 1.96 | 1.19 | 82 | 1011.5 |
| 20260506104515 | 10 | 129 | 1.6 | 4.8 | 0.00 | 1.96 | 1.19 | 83 | 1011.6 |
| 20260506104006 | 10 | 264 | 0.0 | 4.8 | 0.00 | 1.96 | 1.19 | 84 | 1011.7 |
| 20260506103508 | 10 | 239 | 0.0 | 4.8 | 0.00 | 1.96 | 1.19 | 86 | 1011.6 |
| 20260506103024 | 10 | 121 | 1.6 | 6.4 | 0.00 | 1.96 | 1.19 | 86 | 1011.7 |
| 20260506102509 | 9 | 151 | 1.6 | 6.4 | 0.00 | 1.96 | 1.19 | 88 | 1011.7 |
| 20260506102010 | 9 | 161 | 1.6 | 6.4 | 0.00 | 1.96 | 1.19 | 87 | 1011.7 |
| 20260506101525 | 8 | 226 | 1.6 | 4.8 | 0.00 | 1.96 | 1.19 | 88 | 1011.7 |
| 20260506101008 | 8 | 279 | 0.0 | 8.0 | 0.00 | 1.96 | 1.19 | 92 | 1011.7 |
| 20260506100509 | 8 | 273 | 1.6 | 8.0 | 0.00 | 1.96 | 1.19 | 90 | 1011.7 |
| 20260506100027 | 8 | 250 | 1.6 | 8.0 | 0.00 | 1.96 | 1.19 | 90 | 1011.6 |
| 20260506095510 | 8 | 122 | 0.0 | 8.0 | 0.00 | 1.96 | 1.19 | 89 | 1011.6 |
| 20260506095005 | 8 | 271 | 1.6 | 8.0 | 0.00 | 1.96 | 1.19 | 88 | 1011.5 |
| 20260506094516 | 8 | 280 | 1.6 | 8.0 | 0.00 | 1.96 | 1.19 | 87 | 1011.4 |
| 20260506094007 | 8 | 211 | 1.6 | 8.0 | 0.00 | 1.96 | 1.19 | 87 | 1011.3 |
| 20260506093506 | 9 | 138 | 1.6 | 8.0 | 0.00 | 1.96 | 1.19 | 86 | 1011.3 |
| 20260506093003 | 9 | 117 | 0.0 | 6.4 | 0.00 | 1.96 | 1.19 | 87 | 1011.2 |
| 20260506092502 | 9 | 41 | 1.6 | 6.4 | 0.00 | 1.96 | 1.19 | 86 | 1011.1 |
| 20260506092003 | 9 | 321 | 0.0 | 4.8 | 0.00 | 1.96 | 1.19 | 88 | 1011.0 |
| 20260506091509 | 9 | 136 | 0.0 | 4.8 | 0.00 | 1.96 | 1.19 | 87 | 1011.0 |
| 20260506091003 | 9 | 100 | 0.0 | 3.2 | 0.00 | 1.96 | 1.19 | 89 | 1011.0 |
| 20260506090503 | 9 | 113 | 0.0 | 4.8 | 0.00 | 1.96 | 1.19 | 89 | 1011.0 |
| 20260506090015 | 8 | 266 | 0.0 | 4.8 | 0.00 | 1.96 | 1.19 | 88 | 1011.0 |
| 20260506085508 | 8 | 120 | 0.0 | 3.2 | 0.00 | 1.96 | 1.19 | 89 | 1011.0 |
| 20260506085003 | 8 | 238 | 1.6 | 3.2 | 0.00 | 1.96 | 1.19 | 89 | 1011.0 |
| 20260506084508 | 8 | 255 | 0.0 | 3.2 | 0.00 | 1.96 | 1.19 | 90 | 1011.0 |
| 20260506084005 | 8 | 135 | 0.0 | 6.4 | 0.00 | 1.96 | 1.19 | 91 | 1010.9 |
| 20260506083506 | 8 | 149 | 0.0 | 6.4 | 0.00 | 1.96 | 1.19 | 91 | 1011.0 |
| 20260506083017 | 8 | 142 | 0.0 | 3.2 | 0.00 | 1.96 | 1.19 | 91 | 1011.0 |
| 20260506082509 | 8 | 227 | 1.6 | 3.2 | 0.00 | 1.96 | 1.19 | 92 | 1010.9 |
| 20260506082005 | 8 | 195 | 0.0 | 4.8 | 0.00 | 1.96 | 1.19 | 93 | 1011.0 |
| 20260506081520 | 7 | 101 | 0.0 | 4.8 | 0.00 | 1.96 | 1.19 | 92 | 1011.0 |
| 20260506081005 | 7 | 96 | 0.0 | 4.8 | 0.00 | 1.96 | 1.19 | 93 | 1010.9 |
| 20260506080507 | 7 | 240 | 0.0 | 3.2 | 0.00 | 1.96 | 1.19 | 93 | 1010.9 |
| 20260506073506 | 7 | 116 | 1.6 | 4.8 | 0.00 | 1.96 | 1.17 | 93 | 1010.8 |
| 20260506073018 | 7 | 282 | 0.0 | 4.8 | 0.00 | 1.96 | 1.17 | 93 | 1010.7 |
| 20260506072508 | 7 | 265 | 0.0 | 4.8 | 0.00 | 1.96 | 1.17 | 93 | 1010.7 |
| 20260506072009 | 7 | 254 | 1.6 | 4.8 | 0.00 | 1.96 | 1.17 | 93 | 1010.7 |
| 20260506071521 | 7 | 274 | 0.0 | 4.8 | 0.00 | 1.96 | 1.17 | 94 | 1010.8 |
| 20260506071008 | 7 | 245 | 0.0 | 6.4 | 0.00 | 1.96 | 1.17 | 94 | 1010.8 |
| 20260506070509 | 6 | 233 | 1.6 | 6.4 | 0.00 | 1.96 | 1.17 | 94 | 1010.7 |
| 20260506062507 | 6 | 278 | 0.0 | 6.4 | 0.10 | 1.96 | 1.17 | 94 | 1010.2 |
| 20260506062010 | 6 | 264 | 0.0 | 6.4 | 0.13 | 1.96 | 1.17 | 94 | 1010.2 |
| 20260506061538 | 6 | 281 | 0.0 | 6.4 | 0.13 | 1.96 | 1.17 | 94 | 1010.3 |
| 20260506061008 | 6 | 139 | 1.6 | 9.7 | 0.13 | 1.96 | 1.17 | 94 | 1010.2 |
| 20260506060505 | 6 | 307 | 1.6 | 9.7 | 0.13 | 1.96 | 1.17 | 94 | 1010.3 |
| 20260506051004 | 6 | 206 | 1.6 | 6.4 | 0.08 | 1.85 | 1.02 | 94 | 1009.8 |
| 20260506050506 | 6 | 286 | 1.6 | 8.0 | 0.08 | 1.85 | 1.02 | 94 | 1009.7 |
| 20260506045008 | 6 | 294 | 1.6 | 4.8 | 0.00 | 1.78 | 0.97 | 94 | 1009.7 |
| 20260506044524 | 6 | 65 | 0.0 | 4.8 | 0.00 | 1.78 | 0.97 | 94 | 1009.7 |
| 20260506044007 | 6 | 271 | 1.6 | 4.8 | 0.00 | 1.78 | 0.97 | 95 | 1009.6 |
| 20260506043508 | 6 | 72 | 0.0 | 3.2 | 0.03 | 1.78 | 0.97 | 94 | 1009.6 |
| 20260506043036 | 6 | 141 | 0.0 | 1.6 | 0.00 | 1.78 | 0.94 | 94 | 1009.6 |
| 20260506042506 | 6 | 200 | 0.0 | 1.6 | 0.00 | 1.78 | 0.94 | 94 | 1009.6 |
| 20260506042009 | 6 | 160 | 0.0 | 3.2 | 0.00 | 1.78 | 0.94 | 94 | 1009.6 |
| 20260506041531 | 6 | 200 | 0.0 | 3.2 | 0.00 | 1.78 | 0.94 | 95 | 1009.6 |
| 20260506041007 | 6 | 266 | 0.0 | 1.6 | 0.00 | 1.78 | 0.94 | 94 | 1009.6 |
| 20260506040504 | 6 | 284 | 0.0 | 1.6 | 0.00 | 1.78 | 0.94 | 94 | 1009.7 |
| 20260506040010 | 6 | 157 | 0.0 | 1.6 | 0.00 | 1.78 | 0.94 | 94 | 1009.7 |
| 20260506035505 | 6 | 152 | 0.0 | 1.6 | 0.00 | 1.78 | 0.94 | 94 | 1009.7 |
| 20260506035009 | 6 | 190 | 0.0 | 6.4 | 0.00 | 1.78 | 0.94 | 94 | 1009.7 |
| 20260506034519 | 6 | 261 | 0.0 | 6.4 | 0.00 | 1.78 | 0.94 | 94 | 1009.8 |
| 20260506034007 | 6 | 277 | 0.0 | 6.4 | 0.03 | 1.78 | 0.94 | 94 | 1009.8 |
| 20260506033507 | 6 | 271 | 1.6 | 4.8 | 0.03 | 1.78 | 0.94 | 94 | 1009.8 |
| 20260506033022 | 6 | 274 | 1.6 | 4.8 | 0.05 | 1.78 | 0.94 | 94 | 1009.7 |
| 20260506032507 | 6 | 276 | 1.6 | 4.8 | 0.08 | 1.78 | 0.94 | 94 | 1009.8 |
| 20260506032010 | 6 | 290 | 1.6 | 4.8 | 0.10 | 1.78 | 0.94 | 94 | 1009.8 |
| 20260506031536 | 6 | 287 | 1.6 | 4.8 | 0.10 | 1.78 | 0.94 | 94 | 1009.8 |
| 20260506031013 | 6 | 236 | 1.6 | 4.8 | 0.10 | 1.78 | 0.94 | 94 | 1009.8 |
| 20260506030509 | 6 | 294 | 1.6 | 4.8 | 0.10 | 1.78 | 0.94 | 94 | 1009.8 |
| 20260506030030 | 6 | 295 | 0.0 | 4.8 | 0.10 | 1.78 | 0.94 | 94 | 1009.8 |
| 20260506025507 | 6 | 259 | 1.6 | 4.8 | 0.10 | 1.78 | 0.94 | 94 | 1009.8 |
| 20260506025004 | 6 | 251 | 0.0 | 3.2 | 0.10 | 1.78 | 0.94 | 94 | 1009.8 |
| 20260506024532 | 6 | 257 | 0.0 | 1.6 | 0.10 | 1.78 | 0.94 | 94 | 1009.8 |
| 20260506024011 | 6 | 279 | 0.0 | 1.6 | 0.08 | 1.78 | 0.91 | 94 | 1009.8 |
| 20260506023508 | 6 | 207 | 0.0 | 3.2 | 0.08 | 1.75 | 0.89 | 94 | 1009.8 |
| 20260506023018 | 6 | 265 | 0.0 | 4.8 | 0.08 | 1.75 | 0.86 | 94 | 1009.9 |
| 20260506022511 | 6 | 257 | 0.0 | 4.8 | 0.03 | 1.70 | 0.84 | 94 | 1009.9 |
| 20260506022009 | 6 | 273 | 0.0 | 3.2 | 0.00 | 1.75 | 0.81 | 94 | 1009.9 |
| 20260506021522 | 6 | 263 | 0.0 | 3.2 | 0.00 | 1.78 | 0.81 | 94 | 1009.8 |
| 20260506021008 | 6 | 198 | 0.0 | 3.2 | 0.00 | 1.78 | 0.81 | 94 | 1009.8 |
| 20260506020505 | 6 | 284 | 0.0 | 3.2 | 0.00 | 1.78 | 0.81 | 94 | 1009.8 |
| 20260506020024 | 6 | 266 | 0.0 | 3.2 | 0.00 | 1.78 | 0.81 | 94 | 1009.8 |
| 20260506015509 | 6 | 288 | 0.0 | 1.6 | 0.00 | 1.78 | 0.81 | 94 | 1009.8 |
| 20260506015008 | 6 | 269 | 0.0 | 3.2 | 0.00 | 1.78 | 0.81 | 94 | 1009.8 |
| 20260506014530 | 6 | 279 | 0.0 | 3.2 | 0.00 | 1.78 | 0.81 | 94 | 1009.8 |
| 20260506014012 | 6 | 271 | 0.0 | 3.2 | 0.00 | 1.80 | 0.81 | 94 | 1009.9 |
| 20260506013511 | 6 | 253 | 0.0 | 3.2 | 0.00 | 1.78 | 0.79 | 94 | 1009.8 |
| 20260506013016 | 6 | 282 | 0.0 | 1.6 | 0.00 | 1.78 | 0.79 | 94 | 1009.9 |
| 20260506012507 | 6 | 272 | 0.0 | 4.8 | 0.00 | 1.78 | 0.79 | 94 | 1009.9 |
| 20260506012005 | 6 | 264 | 1.6 | 4.8 | 0.00 | 1.78 | 0.79 | 94 | 1009.9 |
| 20260506011518 | 6 | 300 | 1.6 | 4.8 | 0.03 | 1.78 | 0.79 | 94 | 1010.0 |
| 20260506011010 | 6 | 275 | 0.0 | 4.8 | 0.05 | 1.78 | 0.79 | 94 | 1010.0 |
| 20260506010508 | 6 | 144 | 0.0 | 1.6 | 0.08 | 1.78 | 0.79 | 94 | 1010.1 |
| 20260506010023 | 6 | 220 | 0.0 | 1.6 | 0.08 | 1.78 | 0.79 | 94 | 1010.2 |
| 20260506005507 | 6 | 211 | 0.0 | 1.6 | 0.10 | 1.78 | 0.79 | 94 | 1010.2 |
| 20260506005007 | 6 | 160 | 0.0 | 1.6 | 0.13 | 1.78 | 0.79 | 94 | 1010.3 |
| 20260506004527 | 6 | 221 | 0.0 | 1.6 | 0.15 | 1.78 | 0.79 | 94 | 1010.3 |
| 20260506004011 | 6 | 198 | 0.0 | 1.6 | 0.18 | 1.78 | 0.79 | 94 | 1010.3 |
| 20260506003509 | 6 | 270 | 0.0 | 1.6 | 0.18 | 1.78 | 0.79 | 94 | 1010.5 |
| 20260506003013 | 6 | 221 | 0.0 | 1.6 | 0.20 | 1.78 | 0.79 | 94 | 1010.5 |
| 20260506002506 | 6 | 215 | 0.0 | 1.6 | 0.23 | 1.78 | 0.76 | 94 | 1010.6 |
| 20260506002006 | 6 | 250 | 0.0 | 1.6 | 0.23 | 1.78 | 0.76 | 94 | 1010.6 |
| 20260506001515 | 6 | 281 | 0.0 | 4.8 | 0.23 | 1.78 | 0.74 | 94 | 1010.6 |
| 20260506001005 | 6 | 248 | 0.0 | 4.8 | 0.23 | 1.78 | 0.74 | 94 | 1010.6 |
| 20260506000506 | 6 | 281 | 1.6 | 3.2 | 0.23 | 1.78 | 0.71 | 94 | 1010.6 |
| 20260506000021 | 6 | 284 | 0.0 | 3.2 | 0.25 | 1.75 | 0.69 | 94 | 1010.7 |
| 20260505235506 | 6 | 138 | 0.0 | 3.2 | 0.28 | 1.73 | 0.66 | 94 | 1010.7 |
| 20260505235003 | 6 | 250 | 0.0 | 3.2 | 0.30 | 1.70 | 0.64 | 94 | 1010.8 |
| 20260505234503 | 7 | 153 | 0.0 | 3.2 | 0.38 | 1.68 | 0.64 | 94 | 1010.8 |
| 20260505234004 | 7 | 285 | 0.0 | 1.6 | 0.38 | 1.68 | 0.61 | 94 | 1010.8 |
| 20260505233503 | 7 | 160 | 0.0 | 1.6 | 0.41 | 1.68 | 0.58 | 94 | 1010.8 |
| 20260505233009 | 7 | 153 | 0.0 | 1.6 | 0.43 | 1.65 | 0.56 | 94 | 1010.9 |
| 20260505232507 | 7 | 136 | 0.0 | 0.0 | 0.43 | 1.60 | 0.53 | 94 | 1011.0 |
| 20260505232005 | 7 | 191 | 0.0 | 1.6 | 0.43 | 1.60 | 0.53 | 94 | 1010.9 |
| 20260505231511 | 7 | 158 | 0.0 | 1.6 | 0.43 | 1.57 | 0.51 | 94 | 1011.0 |
| 20260505231003 | 7 | 137 | 0.0 | 1.6 | 0.43 | 1.57 | 0.48 | 93 | 1011.1 |
| 20260505230506 | 7 | 136 | 0.0 | 1.6 | 0.43 | 1.55 | 0.46 | 93 | 1011.1 |
| 20260505230019 | 7 | 187 | 0.0 | 1.6 | 0.43 | 1.50 | 0.43 | 93 | 1011.1 |
| 20260505225506 | 7 | 231 | 0.0 | 3.2 | 0.46 | 1.47 | 0.38 | 93 | 1011.2 |
| 20260505225007 | 7 | 231 | 0.0 | 3.2 | 0.46 | 1.40 | 0.33 | 93 | 1011.2 |
| 20260505224522 | 6 | 231 | 0.0 | 3.2 | 0.38 | 1.30 | 0.23 | 93 | 1011.2 |
| 20260505224010 | 6 | 165 | 0.0 | 1.6 | 0.43 | 1.30 | 0.20 | 93 | 1011.2 |
| 20260505223512 | 6 | 100 | 0.0 | 1.6 | 0.46 | 1.27 | 0.18 | 93 | 1011.3 |
| 20260505223003 | 6 | 134 | 0.0 | 1.6 | 0.53 | 1.22 | 0.13 | 93 | 1011.2 |
| 20260505222502 | 6 | 191 | 0.0 | 1.6 | 0.56 | 1.19 | 0.08 | 93 | 1011.2 |
| 20260505222005 | 6 | 224 | 0.0 | 1.6 | 0.58 | 1.19 | 0.08 | 93 | 1011.3 |
| 20260505221511 | 6 | 222 | 0.0 | 1.6 | 0.56 | 1.17 | 0.08 | 92 | 1011.4 |
| 20260505221005 | 6 | 226 | 0.0 | 1.6 | 0.56 | 1.14 | 0.05 | 92 | 1011.5 |
| 20260505220503 | 6 | 254 | 0.0 | 1.6 | 0.53 | 1.12 | 0.03 | 92 | 1011.5 |
| 20260505220013 | 6 | 245 | 0.0 | 1.6 | 0.48 | 1.09 | 0.00 | 92 | 1011.5 |
| 20260505215506 | 7 | 271 | 0.0 | 1.6 | 0.43 | 1.02 | 1.02 | 92 | 1011.5 |
| 20260505215006 | 7 | 233 | 0.0 | 1.6 | 0.36 | 0.97 | 0.97 | 91 | 1011.6 |
| 20260505214524 | 7 | 280 | 0.0 | 1.6 | 0.33 | 0.94 | 0.94 | 91 | 1011.6 |
| 20260505214010 | 7 | 263 | 0.0 | 6.4 | 0.28 | 0.86 | 0.86 | 91 | 1011.7 |
| 20260505213507 | 7 | 250 | 0.0 | 6.4 | 0.20 | 0.81 | 0.81 | 91 | 1011.8 |
| 20260505213021 | 7 | 271 | 3.2 | 6.4 | 0.08 | 0.69 | 0.69 | 92 | 1011.7 |
| 20260505212509 | 8 | 258 | 0.0 | 1.6 | 0.03 | 0.64 | 0.64 | 93 | 1011.6 |
| 20260505212010 | 8 | 233 | 0.0 | 3.2 | 0.00 | 0.61 | 0.58 | 93 | 1011.6 |
| 20260505211525 | 8 | 200 | 0.0 | 3.2 | 0.00 | 0.61 | 0.58 | 93 | 1011.6 |
| 20260505211004 | 8 | 162 | 0.0 | 3.2 | 0.00 | 0.61 | 0.58 | 93 | 1011.6 |
| 20260505210505 | 8 | 254 | 0.0 | 3.2 | 0.00 | 0.64 | 0.58 | 93 | 1011.7 |
| 20260505210007 | 8 | 269 | 0.0 | 1.6 | 0.00 | 0.64 | 0.58 | 93 | 1011.8 |
| 20260505205503 | 8 | 228 | 0.0 | 1.6 | 0.00 | 0.64 | 0.58 | 93 | 1011.8 |
| 20260505205007 | 7 | 111 | 0.0 | 1.6 | 0.00 | 0.69 | 0.58 | 92 | 1011.8 |
| 20260505204517 | 8 | 255 | 0.0 | 1.6 | 0.00 | 0.69 | 0.58 | 92 | 1011.7 |
| 20260505204008 | 8 | 338 | 0.0 | 1.6 | 0.00 | 0.74 | 0.58 | 92 | 1011.7 |
| 20260505203507 | 8 | 220 | 0.0 | 1.6 | 0.00 | 0.74 | 0.58 | 92 | 1011.6 |
| 20260505203020 | 8 | 202 | 0.0 | 1.6 | 0.00 | 0.79 | 0.58 | 92 | 1011.5 |
| 20260505202507 | 8 | 142 | 0.0 | 1.6 | 0.00 | 0.81 | 0.58 | 92 | 1011.5 |
| 20260505202006 | 8 | 297 | 0.0 | 1.6 | 0.00 | 0.84 | 0.58 | 92 | 1011.5 |
| 20260505201520 | 8 | 226 | 0.0 | 1.6 | 0.00 | 0.86 | 0.58 | 92 | 1011.5 |
| 20260505201009 | 8 | 163 | 0.0 | 1.6 | 0.00 | 0.94 | 0.58 | 92 | 1011.6 |
| 20260505200509 | 8 | 230 | 0.0 | 1.6 | 0.00 | 0.99 | 0.58 | 92 | 1011.6 |
| 20260505200030 | 8 | 255 | 0.0 | 1.6 | 0.00 | 1.02 | 0.58 | 91 | 1011.6 |
| 20260505195509 | 8 | 278 | 0.0 | 1.6 | 0.00 | 1.04 | 0.58 | 91 | 1011.5 |
| 20260505195003 | 8 | 150 | 0.0 | 1.6 | 0.00 | 1.09 | 0.58 | 91 | 1011.4 |
| 20260505194509 | 8 | 233 | 0.0 | 1.6 | 0.00 | 1.12 | 0.58 | 91 | 1011.3 |
| 20260505194006 | 8 | 126 | 0.0 | 1.6 | 0.00 | 1.17 | 0.58 | 91 | 1011.3 |
| 20260505193508 | 8 | 141 | 0.0 | 1.6 | 0.00 | 1.19 | 0.58 | 91 | 1011.3 |
| 20260505193013 | 8 | 148 | 0.0 | 1.6 | 0.00 | 1.19 | 0.58 | 91 | 1011.4 |
| 20260505192508 | 8 | 152 | 0.0 | 1.6 | 0.00 | 1.22 | 0.58 | 91 | 1011.4 |
| 20260505192009 | 8 | 89 | 0.0 | 1.6 | 0.00 | 1.22 | 0.58 | 91 | 1011.3 |
| 20260505191521 | 8 | 191 | 0.0 | 1.6 | 0.00 | 1.22 | 0.58 | 91 | 1011.4 |
| 20260505191006 | 8 | 192 | 0.0 | 1.6 | 0.00 | 1.24 | 0.58 | 91 | 1011.4 |
| 20260505190506 | 8 | 236 | 0.0 | 1.6 | 0.00 | 1.30 | 0.58 | 91 | 1011.3 |
| 20260505190028 | 8 | 153 | 0.0 | 0.0 | 0.00 | 1.35 | 0.58 | 90 | 1011.2 |
| 20260505185510 | 8 | 154 | 0.0 | 0.0 | 0.00 | 1.40 | 0.58 | 90 | 1011.2 |
| 20260505185010 | 8 | 153 | 0.0 | 1.6 | 0.00 | 1.52 | 0.58 | 90 | 1011.2 |
| 20260505184524 | 8 | 214 | 0.0 | 1.6 | 0.00 | 1.65 | 0.58 | 89 | 1011.1 |
| 20260505184010 | 8 | 214 | 0.0 | 1.6 | 0.00 | 1.78 | 0.58 | 89 | 1011.0 |
| 20260505183510 | 8 | 272 | 0.0 | 1.6 | 0.00 | 1.88 | 0.58 | 89 | 1010.8 |
| 20260505183012 | 8 | 270 | 0.0 | 1.6 | 0.00 | 1.96 | 0.58 | 88 | 1011.0 |
| 20260505182502 | 9 | 66 | 0.0 | 1.6 | 0.00 | 2.03 | 0.58 | 89 | 1011.1 |
| 20260505182003 | 9 | 281 | 0.0 | 1.6 | 0.00 | 2.11 | 0.58 | 88 | 1011.0 |
| 20260505181504 | 9 | 320 | 0.0 | 1.6 | 0.00 | 2.16 | 0.58 | 88 | 1010.9 |
| 20260505181002 | 9 | 219 | 0.0 | 1.6 | 0.00 | 2.21 | 0.58 | 88 | 1011.0 |
| 20260505180504 | 9 | 160 | 0.0 | 1.6 | 0.00 | 2.24 | 0.58 | 87 | 1011.0 |
| 20260505180005 | 9 | 135 | 0.0 | 1.6 | 0.00 | 2.29 | 0.58 | 87 | 1010.9 |
| 20260505175506 | 9 | 135 | 0.0 | 1.6 | 0.00 | 2.34 | 0.58 | 87 | 1011.0 |
| 20260505175005 | 10 | 135 | 0.0 | 1.6 | 0.00 | 2.34 | 0.58 | 86 | 1011.0 |
| 20260505174506 | 10 | 115 | 0.0 | 3.2 | 0.00 | 2.39 | 0.58 | 86 | 1011.0 |
| 20260505174002 | 10 | 257 | 0.0 | 3.2 | 0.00 | 2.41 | 0.58 | 86 | 1011.1 |
| 20260505173506 | 10 | 262 | 0.0 | 1.6 | 0.00 | 2.41 | 0.58 | 84 | 1011.1 |
| 20260505173004 | 10 | 213 | 0.0 | 1.6 | 0.00 | 2.44 | 0.58 | 84 | 1011.1 |
| 20260505172502 | 10 | 158 | 0.0 | 1.6 | 0.00 | 2.44 | 0.58 | 83 | 1011.2 |
| 20260505172002 | 10 | 143 | 0.0 | 1.6 | 0.00 | 2.46 | 0.58 | 83 | 1011.2 |
| 20260505171506 | 10 | 283 | 0.0 | 1.6 | 0.00 | 2.49 | 0.58 | 85 | 1011.2 |
| 20260505171002 | 10 | 39 | 0.0 | 3.2 | 0.00 | 2.51 | 0.58 | 85 | 1011.2 |
| 20260505170504 | 10 | 38 | 0.0 | 3.2 | 0.00 | 2.51 | 0.58 | 84 | 1011.2 |
| 20260505170007 | 10 | 240 | 0.0 | 3.2 | 0.00 | 2.51 | 0.58 | 83 | 1011.2 |
| 20260505165502 | 10 | 276 | 0.0 | 1.6 | 0.00 | 2.51 | 0.58 | 83 | 1011.1 |
| 20260505165003 | 10 | 285 | 0.0 | 3.2 | 0.00 | 2.51 | 0.58 | 83 | 1011.2 |
| 20260505164504 | 10 | 281 | 0.0 | 3.2 | 0.03 | 2.51 | 0.58 | 83 | 1011.2 |
| 20260505164003 | 10 | 250 | 0.0 | 1.6 | 0.05 | 2.51 | 0.58 | 82 | 1011.2 |
| 20260505163505 | 10 | 270 | 0.0 | 3.2 | 0.05 | 2.51 | 0.58 | 83 | 1011.3 |
| 20260505163009 | 10 | 125 | 0.0 | 3.2 | 0.05 | 2.51 | 0.58 | 86 | 1011.3 |
| 20260505162502 | 10 | 280 | 0.0 | 3.2 | 0.05 | 2.51 | 0.58 | 87 | 1011.3 |
| 20260505162003 | 10 | 119 | 0.0 | 3.2 | 0.05 | 2.51 | 0.58 | 89 | 1011.4 |
| 20260505161504 | 10 | 128 | 0.0 | 4.8 | 0.05 | 2.51 | 0.58 | 89 | 1011.5 |
| 20260505161003 | 9 | 117 | 1.6 | 4.8 | 0.05 | 2.51 | 0.58 | 90 | 1011.6 |
| 20260505160506 | 9 | 160 | 0.0 | 1.6 | 0.05 | 2.51 | 0.58 | 90 | 1011.6 |
| 20260505153003 | 10 | 122 | 0.0 | 3.2 | 0.00 | 2.44 | 0.53 | 89 | 1011.7 |
| 20260505152501 | 10 | 146 | 0.0 | 4.8 | 0.05 | 2.44 | 0.53 | 90 | 1011.7 |
| 20260505152004 | 9 | 162 | 0.0 | 4.8 | 0.13 | 2.44 | 0.53 | 90 | 1011.7 |
| 20260505151504 | 9 | 106 | 1.6 | 4.8 | 0.15 | 2.44 | 0.53 | 90 | 1011.8 |
| 20260505151004 | 9 | 98 | 0.0 | 4.8 | 0.18 | 2.44 | 0.53 | 91 | 1011.8 |
| 20260505150503 | 8 | 163 | 0.0 | 3.2 | 0.18 | 2.44 | 0.53 | 91 | 1011.7 |
| 20260505140503 | 11 | 253 | 3.2 | 11.3 | 0.00 | 2.24 | 0.33 | 78 | 1011.1 |
| 20260505125007 | 12 | 343 | 1.6 | 6.4 | 0.00 | 2.24 | 0.33 | 77 | 1011.3 |
| 20260505124519 | 12 | 160 | 1.6 | 4.8 | 0.00 | 2.24 | 0.33 | 81 | 1011.3 |
| 20260505124006 | 12 | 94 | 1.6 | 4.8 | 0.00 | 2.24 | 0.33 | 81 | 1011.4 |
| 20260505123505 | 12 | 139 | 1.6 | 4.8 | 0.00 | 2.24 | 0.33 | 81 | 1011.4 |
| 20260505123009 | 12 | 15 | 0.0 | 6.4 | 0.00 | 2.24 | 0.33 | 83 | 1011.5 |
| 20260505122508 | 12 | 299 | 1.6 | 6.4 | 0.00 | 2.24 | 0.33 | 83 | 1011.4 |
| 20260505122009 | 12 | 186 | 1.6 | 8.0 | 0.00 | 2.24 | 0.33 | 84 | 1011.5 |
| 20260505121512 | 11 | 275 | 3.2 | 8.0 | 0.00 | 2.24 | 0.33 | 84 | 1011.5 |
| 20260505121007 | 11 | 298 | 0.0 | 4.8 | 0.00 | 2.24 | 0.33 | 85 | 1011.5 |
| 20260505120506 | 11 | 261 | 0.0 | 4.8 | 0.00 | 2.24 | 0.33 | 86 | 1011.5 |
| 20260505120024 | 11 | 101 | 0.0 | 4.8 | 0.00 | 2.24 | 0.33 | 86 | 1011.5 |
| 20260505115503 | 11 | 121 | 0.0 | 4.8 | 0.00 | 2.24 | 0.33 | 87 | 1011.6 |